Home > Weather > Quispamsis > Past weeks

Flag for Canada Weather for the Past 2 Weeks in Quispamsis, New Brunswick, Canada

Now
27 °F

Partly sunny.


Feels Like: 18 °F
Forecast: 11 / 29 °F
Wind: 8 mph from Southwest

Location: Saint John

Current Time: Feb 6, 2016 at 3:29:23 PM

Latest Report: Feb 6, 2016 at 3:00 PM


Visibility: 15 mi

Pressure: 30.22 "Hg

Humidity: 74%

Dew point: 19 °F

Location of QuispamsisLocation

Historic Weather in Quispamsis — Graph

°F

Quispamsis Temperature Yesterday

Maximum temperature yesterday: 37 °F (at 12:00 AM)
Minimum temperature yesterday: 21 °F (at 11:00 PM)
Average temperature yesterday: 30 °F

High & Low Weather Summary for the Past Weeks

 TemperatureHumidityPressure
High48 °F (Feb 4, 5:00 AM)100% (Jan 29, 1:00 PM)30.53 "Hg (Jan 29, 1:00 PM)
Low-4 °F (Jan 23, 8:00 AM)40% (Feb 2, 12:00 PM)29.26 "Hg (Jan 29, 4:00 PM)
Average28 °F78%29.94 "Hg
* Reported Jan 22 2:00 PM — Feb 6 2:00 PM, Quispamsis, Weather by CustomWeather, © 2016

Note: Actual official high and low records may vary slightly from our data, if they occured in-between our weather recording intervals... More about our weather records

Advertising

Quispamsis Weather History for the Previous 24 Hours

 ConditionsComfort  
Time TempWeatherWind HumidityBarometerVisibility
2:00 PM
Sat, Feb 6
27 °FPartly sunny.8 mph64%30.22 "Hg15 mi
1:00 PM25 °FPartly sunny.12 mph63%30.23 "Hg15 mi
12:00 PM21 °FPartly sunny.8 mph68%30.24 "Hg15 mi
11:00 AM19 °FPassing clouds.6 mph68%30.25 "Hg15 mi
10:00 AM16 °FPassing clouds.10 mph67%30.24 "Hg15 mi
9:00 AM12 °FPassing clouds.No wind73%30.22 "Hg15 mi
8:00 AM10 °FPassing clouds.13 mph79%30.19 "Hg15 mi
7:00 AM10 °FClear.16 mph79%30.16 "Hg15 mi
6:00 AM12 °FPassing clouds.16 mph79%30.14 "Hg15 mi
5:00 AM12 °FPassing clouds.14 mph79%30.10 "Hg15 mi
4:00 AM14 °FPassing clouds.17 mph79%30.06 "Hg15 mi
3:00 AM14 °FPassing clouds.21 mph79%30.00 "Hg15 mi
2:00 AM18 °FLight snow. Overcast.20 mph86%29.95 "Hg6 mi
1:00 AM19 °FLight snow. Overcast.18 mph86%29.90 "Hg3 mi
12:00 AM23 °FLight snow. Ice fog.20 mph86%29.86 "Hg1 mi
11:00 PM
Fri, Feb 5
21 °FSleet. Ice fog.23 mph93%29.84 "Hg1 mi
10:00 PM23 °FLight snow. Ice fog.31 mph86%29.81 "Hg1 mi
9:00 PM23 °FLight snow. Ice fog.24 mph93%29.75 "Hg1 mi
8:00 PM25 °FLight snow. Ice fog.20 mph86%29.80 "Hg1 mi
7:00 PM25 °FLight snow. Ice fog.21 mph93%29.79 "Hg1 mi
6:00 PM27 °FLight snow. Ice fog.17 mph86%29.85 "Hg1 mi
5:00 PM27 °FLight snow. Low clouds.20 mph93%29.81 "Hg1 mi
4:00 PM27 °FLight snow. Low clouds.20 mph93%29.85 "Hg1 mi
3:00 PM28 °FLight snow. Ice fog.18 mph93%29.86 "Hg1 mi
Weather by CustomWeather, © 2016

See weather overviewHow to use our weather pages